| time (UTC) | temp C | wind direction | speed KPH | gust KPH | rain 1hr cm | rain 24hr cm | rain mn cm | humidity % | barometer mb |
| 20260905220347 | 22 | 320 | 1.6 | 4.8 | 0.00 | 0.00 | 0.00 | 35 | 1032.4 |
| 20260905215846 | 22 | 343 | 6.4 | 11.3 | 0.00 | 0.00 | 0.00 | 36 | 1032.5 |
| 20260905215341 | 22 | 4 | 6.4 | 12.9 | 0.00 | 0.00 | 0.00 | 36 | 1032.5 |
| 20260905214832 | 22 | 358 | 8.0 | 14.5 | 0.00 | 0.00 | 0.00 | 36 | 1032.5 |
| 20260905214327 | 22 | 359 | 4.8 | 6.4 | 0.00 | 0.00 | 0.00 | 36 | 1032.8 |
| 20260905213822 | 22 | 275 | 1.6 | 4.8 | 0.00 | 0.00 | 0.00 | 35 | 1032.5 |
| 20260905213318 | 22 | 299 | 3.2 | 9.7 | 0.00 | 0.00 | 0.00 | 36 | 1032.5 |
| 20260905212813 | 22 | 261 | 3.2 | 4.8 | 0.00 | 0.00 | 0.00 | 36 | 1032.8 |
| 20260905212312 | 22 | 223 | 1.6 | 16.1 | 0.00 | 0.00 | 0.00 | 35 | 1032.8 |
| 20260905211807 | 22 | 104 | 4.8 | 11.3 | 0.00 | 0.00 | 0.00 | 35 | 1032.8 |
| 20260905211302 | 22 | 9 | 3.2 | 11.3 | 0.00 | 0.00 | 0.00 | 36 | 1032.9 |
| 20260905210759 | 21 | 317 | 6.4 | 14.5 | 0.00 | 0.00 | 0.00 | 37 | 1033.1 |
| 20260905210258 | 21 | 17 | 6.4 | 11.3 | 0.00 | 0.00 | 0.00 | 37 | 1033.3 |
| 20260905205757 | 21 | 55 | 12.9 | 14.5 | 0.00 | 0.00 | 0.00 | 37 | 1033.2 |
| 20260905205252 | 20 | 349 | 4.8 | 9.7 | 0.00 | 0.00 | 0.00 | 37 | 1033.6 |
| 20260905204751 | 21 | 351 | 3.2 | 9.7 | 0.00 | 0.00 | 0.00 | 38 | 1033.2 |
| 20260905204248 | 21 | 273 | 0.0 | 9.7 | 0.00 | 0.00 | 0.00 | 38 | 1033.2 |
| 20260905203747 | 21 | 280 | 3.2 | 9.7 | 0.00 | 0.00 | 0.00 | 37 | 1033.2 |
| 20260905203242 | 21 | 318 | 9.7 | 12.9 | 0.00 | 0.00 | 0.00 | 36 | 1033.2 |
| 20260905202738 | 22 | 15 | 9.7 | 12.9 | 0.00 | 0.00 | 0.00 | 38 | 1033.3 |
| 20260905202238 | 21 | 16 | 3.2 | 11.3 | 0.00 | 0.00 | 0.00 | 38 | 1033.2 |
| 20260905201733 | 21 | 99 | 14.5 | 17.7 | 0.00 | 0.00 | 0.00 | 36 | 1033.5 |
| 20260905201228 | 20 | 210 | 3.2 | 3.2 | 0.00 | 0.00 | 0.00 | 40 | 1033.2 |
| 20260905200723 | 20 | 5 | 3.2 | 16.1 | 0.00 | 0.00 | 0.00 | 39 | 1033.2 |
| 20260905200219 | 20 | 345 | 6.4 | 16.1 | 0.00 | 0.00 | 0.00 | 39 | 1033.2 |
| 20260905195717 | 20 | 300 | 8.0 | 14.5 | 0.00 | 0.00 | 0.00 | 39 | 1033.3 |
| 20260905195213 | 20 | 292 | 11.3 | 14.5 | 0.00 | 0.00 | 0.00 | 39 | 1033.3 |
| 20260905194708 | 20 | 37 | 11.3 | 12.9 | 0.00 | 0.00 | 0.00 | 39 | 1033.5 |
| 20260905194207 | 21 | 272 | 1.6 | 9.7 | 0.00 | 0.00 | 0.00 | 39 | 1033.5 |
| 20260905193701 | 21 | 286 | 6.4 | 11.3 | 0.00 | 0.00 | 0.00 | 38 | 1033.3 |
| 20260905193156 | 21 | 84 | 6.4 | 16.1 | 0.00 | 0.00 | 0.00 | 37 | 1033.6 |
| 20260905192652 | 23 | 119 | 3.2 | 11.3 | 0.00 | 0.00 | 0.00 | 36 | 1033.3 |
| 20260905192149 | 22 | 107 | 4.8 | 11.3 | 0.00 | 0.00 | 0.00 | 35 | 1033.3 |
| 20260905191648 | 21 | 323 | 1.6 | 4.8 | 0.00 | 0.00 | 0.00 | 37 | 1033.5 |
| 20260905191146 | 22 | 212 | 1.6 | 6.4 | 0.00 | 0.00 | 0.00 | 37 | 1033.6 |
| 20260905190644 | 21 | 10 | 9.7 | 12.9 | 0.00 | 0.00 | 0.00 | 39 | 1033.6 |
| 20260905190144 | 21 | 316 | 4.8 | 4.8 | 0.00 | 0.00 | 0.00 | 37 | 1033.5 |
| 20260905185637 | 22 | 25 | 17.7 | 20.9 | 0.00 | 0.00 | 0.00 | 37 | 1033.5 |
| 20260905185132 | 22 | 359 | 6.4 | 6.4 | 0.00 | 0.00 | 0.00 | 36 | 1033.6 |
| 20260905184632 | 22 | 84 | 3.2 | 17.7 | 0.00 | 0.00 | 0.00 | 34 | 1033.6 |
| 20260905184131 | 22 | 71 | 8.0 | 14.5 | 0.00 | 0.00 | 0.00 | 34 | 1033.5 |
| 20260905183630 | 21 | 0 | 0.0 | 11.3 | 0.00 | 0.00 | 0.00 | 37 | 1033.6 |
| 20260905183126 | 21 | 307 | 4.8 | 12.9 | 0.00 | 0.00 | 0.00 | 37 | 1033.7 |
| 20260905182625 | 21 | 304 | 3.2 | 12.9 | 0.00 | 0.00 | 0.00 | 36 | 1033.5 |
| 20260905182119 | 22 | 115 | 4.8 | 6.4 | 0.00 | 0.00 | 0.00 | 35 | 1033.7 |
| 20260905181614 | 22 | 315 | 4.8 | 6.4 | 0.00 | 0.00 | 0.00 | 35 | 1033.6 |
| 20260905181113 | 23 | 275 | 3.2 | 4.8 | 0.00 | 0.00 | 0.00 | 35 | 1033.6 |
| 20260905180609 | 22 | 120 | 12.9 | 17.7 | 0.00 | 0.00 | 0.00 | 36 | 1033.7 |
| 20260905180104 | 22 | 42 | 6.4 | 11.3 | 0.00 | 0.00 | 0.00 | 37 | 1033.7 |
| 20260905175603 | 22 | 162 | 8.0 | 14.5 | 0.00 | 0.00 | 0.00 | 36 | 1033.9 |
| 20260905175058 | 23 | 51 | 12.9 | 17.7 | 0.00 | 0.00 | 0.00 | 34 | 1033.6 |
| 20260905174554 | 22 | 96 | 12.9 | 16.1 | 0.00 | 0.00 | 0.00 | 36 | 1033.9 |
| 20260905174049 | 22 | 297 | 6.4 | 16.1 | 0.00 | 0.00 | 0.00 | 36 | 1033.9 |
| 20260905173546 | 23 | 90 | 9.7 | 12.9 | 0.00 | 0.00 | 0.00 | 36 | 1033.9 |
| 20260905173041 | 22 | 279 | 3.2 | 9.7 | 0.00 | 0.00 | 0.00 | 35 | 1033.7 |
| 20260905172539 | 23 | 71 | 3.2 | 11.3 | 0.00 | 0.00 | 0.00 | 35 | 1033.9 |
| 20260905172035 | 23 | 150 | 12.9 | 14.5 | 0.00 | 0.00 | 0.00 | 34 | 1033.9 |
| 20260905171531 | 23 | 314 | 6.4 | 11.3 | 0.00 | 0.00 | 0.00 | 34 | 1033.6 |
| 20260905171027 | 23 | 252 | 0.0 | 1.6 | 0.00 | 0.00 | 0.00 | 33 | 1033.9 |
| 20260905170523 | 22 | 282 | 3.2 | 6.4 | 0.00 | 0.00 | 0.00 | 35 | 1033.6 |
| 20260905170018 | 21 | 8 | 3.2 | 6.4 | 0.00 | 0.00 | 0.00 | 36 | 1033.6 |
| 20260905165513 | 21 | 305 | 3.2 | 3.2 | 0.00 | 0.00 | 0.00 | 35 | 1033.9 |
| 20260905165008 | 20 | 271 | 3.2 | 6.4 | 0.00 | 0.00 | 0.00 | 36 | 1033.6 |
| 20260905164502 | 20 | 265 | 1.6 | 4.8 | 0.00 | 0.00 | 0.00 | 36 | 1034.0 |
| 20260905163956 | 20 | 270 | 3.2 | 6.4 | 0.00 | 0.00 | 0.00 | 37 | 1033.7 |
| 20260905163453 | 21 | 338 | 1.6 | 6.4 | 0.00 | 0.00 | 0.00 | 38 | 1033.5 |
| 20260905162949 | 21 | 276 | 3.2 | 6.4 | 0.00 | 0.00 | 0.00 | 36 | 1033.9 |
| 20260905162444 | 22 | 88 | 8.0 | 16.1 | 0.00 | 0.00 | 0.00 | 35 | 1033.7 |
| 20260905161939 | 21 | 7 | 6.4 | 11.3 | 0.00 | 0.00 | 0.00 | 36 | 1033.6 |
| 20260905161438 | 21 | 271 | 4.8 | 12.9 | 0.00 | 0.00 | 0.00 | 37 | 1033.6 |
| 20260905160936 | 21 | 14 | 3.2 | 11.3 | 0.00 | 0.00 | 0.00 | 36 | 1033.5 |
| 20260905160430 | 21 | 299 | 3.2 | 6.4 | 0.00 | 0.00 | 0.00 | 36 | 1033.5 |
| 20260905155930 | 21 | 293 | 6.4 | 11.3 | 0.00 | 0.00 | 0.00 | 36 | 1033.5 |
| 20260905155425 | 21 | 305 | 4.8 | 6.4 | 0.00 | 0.00 | 0.00 | 35 | 1033.6 |
| 20260905154923 | 21 | 247 | 3.2 | 4.8 | 0.00 | 0.00 | 0.00 | 36 | 1033.6 |
| 20260905154419 | 21 | 294 | 4.8 | 6.4 | 0.00 | 0.00 | 0.00 | 35 | 1033.5 |
| 20260905153915 | 21 | 234 | 3.2 | 6.4 | 0.00 | 0.00 | 0.00 | 34 | 1033.5 |
| 20260905153411 | 21 | 303 | 3.2 | 12.9 | 0.00 | 0.00 | 0.00 | 37 | 1033.5 |
| 20260905152910 | 20 | 203 | 3.2 | 6.4 | 0.00 | 0.00 | 0.00 | 37 | 1033.5 |
| 20260905152409 | 20 | 269 | 8.0 | 11.3 | 0.00 | 0.00 | 0.00 | 37 | 1033.5 |
| 20260905151905 | 20 | 291 | 1.6 | 11.3 | 0.00 | 0.00 | 0.00 | 38 | 1033.3 |
| 20260905151400 | 20 | 234 | 6.4 | 9.7 | 0.00 | 0.00 | 0.00 | 38 | 1033.5 |
| 20260905150855 | 19 | 251 | 3.2 | 11.3 | 0.00 | 0.00 | 0.00 | 40 | 1033.5 |
| 20260905150354 | 20 | 340 | 6.4 | 12.9 | 0.00 | 0.00 | 0.00 | 39 | 1033.3 |
| 20260905145851 | 20 | 275 | 1.6 | 6.4 | 0.00 | 0.00 | 0.00 | 39 | 1033.2 |
| 20260905145346 | 19 | 325 | 3.2 | 9.7 | 0.00 | 0.00 | 0.00 | 40 | 1033.5 |
| 20260905144845 | 19 | 303 | 6.4 | 11.3 | 0.00 | 0.00 | 0.00 | 40 | 1033.5 |
| 20260905144341 | 18 | 269 | 9.7 | 14.5 | 0.00 | 0.00 | 0.00 | 40 | 1033.5 |
| 20260905143839 | 18 | 233 | 11.3 | 16.1 | 0.00 | 0.00 | 0.00 | 41 | 1033.5 |
| 20260905143328 | 19 | 256 | 0.0 | 3.2 | 0.00 | 0.00 | 0.00 | 40 | 1033.3 |
| 20260905142827 | 18 | 251 | 0.0 | 4.8 | 0.00 | 0.00 | 0.00 | 41 | 1033.5 |
| 20260905142321 | 18 | 291 | 3.2 | 3.2 | 0.00 | 0.00 | 0.00 | 41 | 1033.3 |
| 20260905141818 | 18 | 247 | 3.2 | 6.4 | 0.00 | 0.00 | 0.00 | 42 | 1033.5 |
| 20260905141313 | 18 | 246 | 6.4 | 6.4 | 0.00 | 0.00 | 0.00 | 42 | 1033.3 |
| 20260905140808 | 17 | 217 | 8.0 | 11.3 | 0.00 | 0.00 | 0.00 | 42 | 1033.6 |
| 20260905140302 | 17 | 173 | 3.2 | 6.4 | 0.00 | 0.00 | 0.00 | 43 | 1033.2 |
| 20260905135801 | 17 | 304 | 11.3 | 16.1 | 0.00 | 0.00 | 0.00 | 43 | 1033.1 |
| 20260905135258 | 17 | 296 | 9.7 | 14.5 | 0.00 | 0.00 | 0.00 | 43 | 1033.1 |
| 20260905134757 | 17 | 236 | 6.4 | 9.7 | 0.00 | 0.00 | 0.00 | 43 | 1032.9 |
| 20260905134251 | 17 | 218 | 9.7 | 12.9 | 0.00 | 0.00 | 0.00 | 44 | 1032.8 |
| 20260905133745 | 16 | 244 | 3.2 | 12.9 | 0.00 | 0.00 | 0.00 | 44 | 1032.9 |
| 20260905133241 | 16 | 203 | 4.8 | 11.3 | 0.00 | 0.00 | 0.00 | 45 | 1033.1 |
| 20260905132740 | 16 | 240 | 1.6 | 9.7 | 0.00 | 0.00 | 0.00 | 45 | 1032.8 |
| 20260905132236 | 16 | 252 | 3.2 | 16.1 | 0.00 | 0.00 | 0.00 | 44 | 1032.7 |
| 20260905131730 | 16 | 240 | 1.6 | 4.8 | 0.00 | 0.00 | 0.00 | 46 | 1032.8 |
| 20260905131225 | 15 | 223 | 6.4 | 11.3 | 0.00 | 0.00 | 0.00 | 44 | 1032.9 |
| 20260905130720 | 15 | 172 | 3.2 | 6.4 | 0.00 | 0.00 | 0.00 | 46 | 1032.7 |
| 20260905130219 | 13 | 225 | 3.2 | 3.2 | 0.00 | 0.00 | 0.00 | 52 | 1032.8 |
| 20260905125715 | 13 | 204 | 4.8 | 4.8 | 0.00 | 0.00 | 0.00 | 51 | 1032.7 |
| 20260905125210 | 13 | 200 | 4.8 | 4.8 | 0.00 | 0.00 | 0.00 | 52 | 1032.8 |
| 20260905124706 | 13 | 202 | 4.8 | 4.8 | 0.00 | 0.00 | 0.00 | 50 | 1032.5 |
| 20260905124202 | 15 | 196 | 3.2 | 6.4 | 0.00 | 0.00 | 0.00 | 47 | 1032.5 |
| 20260905123656 | 15 | 213 | 6.4 | 11.3 | 0.00 | 0.00 | 0.00 | 46 | 1032.3 |
| 20260905123154 | 15 | 211 | 3.2 | 9.7 | 0.00 | 0.00 | 0.00 | 47 | 1032.3 |
| 20260905122653 | 15 | 222 | 4.8 | 4.8 | 0.00 | 0.00 | 0.00 | 49 | 1032.3 |
| 20260905122148 | 15 | 200 | 3.2 | 6.4 | 0.00 | 0.00 | 0.00 | 50 | 1032.3 |
| 20260905121643 | 13 | 211 | 4.8 | 9.7 | 0.00 | 0.00 | 0.00 | 50 | 1032.3 |
| 20260905121138 | 13 | 216 | 3.2 | 3.2 | 0.00 | 0.00 | 0.00 | 54 | 1032.3 |
| 20260905120637 | 13 | 208 | 6.4 | 6.4 | 0.00 | 0.00 | 0.00 | 51 | 1032.4 |
| 20260905120132 | 13 | 213 | 4.8 | 6.4 | 0.00 | 0.00 | 0.00 | 54 | 1032.3 |
| 20260905115632 | 13 | 213 | 4.8 | 4.8 | 0.00 | 0.00 | 0.00 | 54 | 1032.1 |
| 20260905115127 | 14 | 219 | 3.2 | 6.4 | 0.00 | 0.00 | 0.00 | 52 | 1032.0 |
| 20260905114627 | 15 | 213 | 4.8 | 6.4 | 0.00 | 0.00 | 0.00 | 50 | 1032.3 |
| 20260905114125 | 15 | 233 | 6.4 | 6.4 | 0.00 | 0.00 | 0.00 | 49 | 1032.3 |
| 20260905113620 | 13 | 228 | 4.8 | 4.8 | 0.00 | 0.00 | 0.00 | 53 | 1032.3 |
| 20260905113115 | 14 | 231 | 4.8 | 6.4 | 0.00 | 0.00 | 0.00 | 52 | 1032.3 |
| 20260905112610 | 13 | 210 | 4.8 | 6.4 | 0.00 | 0.00 | 0.00 | 54 | 1032.1 |
| 20260905112106 | 13 | 205 | 3.2 | 4.8 | 0.00 | 0.00 | 0.00 | 55 | 1032.3 |
| 20260905111606 | 13 | 210 | 6.4 | 6.4 | 0.00 | 0.00 | 0.00 | 54 | 1032.3 |
| 20260905111105 | 13 | 236 | 3.2 | 4.8 | 0.00 | 0.00 | 0.00 | 55 | 1032.4 |
| 20260905110604 | 13 | 208 | 4.8 | 6.4 | 0.00 | 0.00 | 0.00 | 55 | 1032.3 |
| 20260905110059 | 13 | 207 | 4.8 | 4.8 | 0.00 | 0.00 | 0.00 | 56 | 1032.3 |
| 20260905105554 | 13 | 206 | 6.4 | 6.4 | 0.00 | 0.00 | 0.00 | 55 | 1032.3 |
| 20260905105053 | 13 | 218 | 4.8 | 6.4 | 0.00 | 0.00 | 0.00 | 57 | 1032.4 |
| 20260905104549 | 13 | 206 | 4.8 | 4.8 | 0.00 | 0.00 | 0.00 | 57 | 1032.1 |
| 20260905104048 | 13 | 211 | 4.8 | 4.8 | 0.00 | 0.00 | 0.00 | 57 | 1032.0 |
| 20260905103545 | 13 | 203 | 6.4 | 6.4 | 0.00 | 0.00 | 0.00 | 56 | 1032.0 |
| 20260905103041 | 13 | 216 | 4.8 | 4.8 | 0.00 | 0.00 | 0.00 | 56 | 1032.3 |
| 20260905102536 | 13 | 207 | 4.8 | 4.8 | 0.00 | 0.00 | 0.00 | 57 | 1032.1 |
| 20260905102033 | 13 | 197 | 4.8 | 6.4 | 0.00 | 0.00 | 0.00 | 56 | 1032.1 |
| 20260905101531 | 13 | 201 | 4.8 | 6.4 | 0.00 | 0.00 | 0.00 | 58 | 1031.9 |
| 20260905101029 | 13 | 208 | 4.8 | 6.4 | 0.00 | 0.00 | 0.00 | 57 | 1032.0 |
| 20260905100526 | 13 | 206 | 4.8 | 6.4 | 0.00 | 0.00 | 0.00 | 57 | 1032.1 |
| 20260905100025 | 12 | 207 | 4.8 | 4.8 | 0.00 | 0.00 | 0.00 | 58 | 1032.0 |
| 20260905095520 | 12 | 204 | 4.8 | 6.4 | 0.00 | 0.00 | 0.00 | 58 | 1032.3 |
| 20260905095015 | 12 | 207 | 4.8 | 6.4 | 0.00 | 0.00 | 0.00 | 60 | 1032.0 |
| 20260905094510 | 12 | 201 | 4.8 | 6.4 | 0.00 | 0.00 | 0.00 | 60 | 1032.0 |
| 20260905094009 | 12 | 209 | 4.8 | 4.8 | 0.00 | 0.00 | 0.00 | 60 | 1032.0 |
| 20260905093504 | 12 | 206 | 4.8 | 4.8 | 0.00 | 0.00 | 0.00 | 61 | 1031.9 |
| 20260905093000 | 12 | 202 | 4.8 | 4.8 | 0.00 | 0.00 | 0.00 | 60 | 1031.9 |
| 20260905092455 | 12 | 199 | 4.8 | 4.8 | 0.00 | 0.00 | 0.00 | 59 | 1031.9 |
| 20260905091951 | 12 | 199 | 4.8 | 4.8 | 0.00 | 0.00 | 0.00 | 60 | 1032.0 |
| 20260905091445 | 12 | 201 | 4.8 | 4.8 | 0.00 | 0.00 | 0.00 | 60 | 1031.8 |
| 20260905090945 | 12 | 205 | 4.8 | 4.8 | 0.00 | 0.00 | 0.00 | 59 | 1031.9 |
| 20260905090440 | 12 | 206 | 4.8 | 4.8 | 0.00 | 0.00 | 0.00 | 59 | 1032.0 |
| 20260905085939 | 12 | 205 | 4.8 | 4.8 | 0.00 | 0.00 | 0.00 | 60 | 1032.0 |
| 20260905085438 | 12 | 199 | 4.8 | 4.8 | 0.00 | 0.00 | 0.00 | 59 | 1032.1 |
| 20260905084934 | 12 | 197 | 4.8 | 4.8 | 0.00 | 0.00 | 0.00 | 59 | 1032.0 |
| 20260905084434 | 12 | 204 | 4.8 | 4.8 | 0.00 | 0.00 | 0.00 | 59 | 1031.8 |
| 20260905083928 | 12 | 201 | 4.8 | 4.8 | 0.00 | 0.00 | 0.00 | 59 | 1031.8 |
| 20260905083424 | 12 | 212 | 3.2 | 4.8 | 0.00 | 0.00 | 0.00 | 59 | 1031.8 |
| 20260905082920 | 12 | 207 | 3.2 | 4.8 | 0.00 | 0.00 | 0.00 | 59 | 1032.0 |
| 20260905082416 | 12 | 209 | 4.8 | 4.8 | 0.00 | 0.00 | 0.00 | 58 | 1031.9 |
| 20260905081915 | 12 | 205 | 4.8 | 4.8 | 0.00 | 0.00 | 0.00 | 59 | 1032.1 |
| 20260905081410 | 12 | 205 | 4.8 | 4.8 | 0.00 | 0.00 | 0.00 | 58 | 1031.9 |
| 20260905080910 | 13 | 208 | 4.8 | 4.8 | 0.00 | 0.00 | 0.00 | 58 | 1031.9 |
| 20260905080409 | 13 | 210 | 4.8 | 4.8 | 0.00 | 0.00 | 0.00 | 57 | 1032.0 |
| 20260905075908 | 13 | 201 | 4.8 | 4.8 | 0.00 | 0.00 | 0.00 | 57 | 1031.9 |
| 20260905075403 | 13 | 207 | 4.8 | 6.4 | 0.00 | 0.00 | 0.00 | 56 | 1032.0 |
| 20260905074902 | 13 | 210 | 4.8 | 6.4 | 0.00 | 0.00 | 0.00 | 56 | 1032.1 |
| 20260905074358 | 13 | 206 | 4.8 | 4.8 | 0.00 | 0.00 | 0.00 | 57 | 1032.1 |
| 20260905073854 | 13 | 203 | 4.8 | 4.8 | 0.00 | 0.00 | 0.00 | 56 | 1031.9 |
| 20260905073348 | 13 | 206 | 4.8 | 4.8 | 0.00 | 0.00 | 0.00 | 56 | 1032.0 |
| 20260905072843 | 13 | 205 | 4.8 | 6.4 | 0.00 | 0.00 | 0.00 | 56 | 1032.0 |
| 20260905072338 | 13 | 200 | 4.8 | 6.4 | 0.00 | 0.00 | 0.00 | 56 | 1032.3 |
| 20260905071835 | 13 | 201 | 4.8 | 6.4 | 0.00 | 0.00 | 0.00 | 56 | 1032.0 |
| 20260905071331 | 13 | 207 | 4.8 | 6.4 | 0.00 | 0.00 | 0.00 | 55 | 1031.9 |
| 20260905070825 | 13 | 206 | 4.8 | 4.8 | 0.00 | 0.00 | 0.00 | 57 | 1032.0 |
| 20260905070322 | 13 | 204 | 4.8 | 4.8 | 0.00 | 0.00 | 0.00 | 56 | 1032.0 |
| 20260905065820 | 13 | 205 | 4.8 | 4.8 | 0.00 | 0.00 | 0.00 | 56 | 1032.0 |
| 20260905065319 | 13 | 210 | 4.8 | 4.8 | 0.00 | 0.00 | 0.00 | 55 | 1031.9 |
| 20260905064814 | 13 | 205 | 4.8 | 4.8 | 0.00 | 0.00 | 0.00 | 55 | 1032.0 |
| 20260905064310 | 14 | 206 | 3.2 | 6.4 | 0.00 | 0.00 | 0.00 | 54 | 1032.0 |
| 20260905063808 | 14 | 212 | 4.8 | 4.8 | 0.00 | 0.00 | 0.00 | 53 | 1032.1 |
| 20260905063259 | 14 | 201 | 4.8 | 4.8 | 0.00 | 0.00 | 0.00 | 54 | 1032.0 |
| 20260905062754 | 14 | 205 | 3.2 | 4.8 | 0.00 | 0.00 | 0.00 | 54 | 1031.8 |
| 20260905062249 | 14 | 201 | 3.2 | 6.4 | 0.00 | 0.00 | 0.00 | 53 | 1032.0 |
| 20260905061743 | 15 | 225 | 3.2 | 4.8 | 0.00 | 0.00 | 0.00 | 52 | 1031.8 |
| 20260905061238 | 15 | 222 | 4.8 | 6.4 | 0.00 | 0.00 | 0.00 | 50 | 1031.9 |
| 20260905060732 | 15 | 205 | 4.8 | 6.4 | 0.00 | 0.00 | 0.00 | 50 | 1031.9 |
| 20260905060230 | 15 | 213 | 4.8 | 6.4 | 0.00 | 0.00 | 0.00 | 50 | 1032.0 |
| 20260905055727 | 15 | 210 | 4.8 | 4.8 | 0.00 | 0.00 | 0.00 | 52 | 1031.9 |
| 20260905055223 | 15 | 214 | 3.2 | 4.8 | 0.00 | 0.00 | 0.00 | 51 | 1031.8 |
| 20260905054718 | 15 | 212 | 6.4 | 6.4 | 0.00 | 0.00 | 0.00 | 51 | 1031.9 |
| 20260905054215 | 15 | 211 | 4.8 | 6.4 | 0.00 | 0.00 | 0.00 | 50 | 1031.8 |
| 20260905053713 | 15 | 230 | 4.8 | 4.8 | 0.00 | 0.00 | 0.00 | 51 | 1031.8 |
| 20260905053208 | 15 | 227 | 3.2 | 6.4 | 0.00 | 0.00 | 0.00 | 50 | 1032.0 |
| 20260905052703 | 15 | 232 | 3.2 | 3.2 | 0.00 | 0.00 | 0.00 | 51 | 1031.9 |
| 20260905052158 | 15 | 219 | 3.2 | 4.8 | 0.00 | 0.00 | 0.00 | 53 | 1031.9 |
| 20260905051658 | 15 | 217 | 3.2 | 4.8 | 0.00 | 0.00 | 0.00 | 52 | 1031.9 |
| 20260905051155 | 15 | 238 | 1.6 | 3.2 | 0.00 | 0.00 | 0.00 | 50 | 1031.9 |
| 20260905050651 | 16 | 208 | 3.2 | 6.4 | 0.00 | 0.00 | 0.00 | 49 | 1031.9 |
| 20260905050147 | 15 | 237 | 3.2 | 4.8 | 0.00 | 0.00 | 0.00 | 49 | 1031.8 |
| 20260905045646 | 15 | 224 | 3.2 | 4.8 | 0.00 | 0.00 | 0.00 | 51 | 1031.9 |
| 20260905045143 | 15 | 184 | 4.8 | 4.8 | 0.00 | 0.00 | 0.00 | 51 | 1032.0 |
| 20260905044642 | 15 | 217 | 3.2 | 4.8 | 0.00 | 0.00 | 0.00 | 51 | 1031.9 |
| 20260905044137 | 15 | 212 | 4.8 | 6.4 | 0.00 | 0.00 | 0.00 | 49 | 1031.9 |
| 20260905043636 | 15 | 214 | 3.2 | 4.8 | 0.00 | 0.00 | 0.00 | 51 | 1031.9 |
| 20260905043131 | 15 | 203 | 4.8 | 4.8 | 0.00 | 0.00 | 0.00 | 51 | 1031.8 |
| 20260905042630 | 15 | 214 | 3.2 | 4.8 | 0.00 | 0.00 | 0.00 | 51 | 1031.9 |
| 20260905042125 | 15 | 214 | 4.8 | 4.8 | 0.00 | 0.00 | 0.00 | 51 | 1032.0 |
| 20260905041621 | 16 | 208 | 4.8 | 4.8 | 0.00 | 0.00 | 0.00 | 50 | 1031.9 |
| 20260905041117 | 15 | 208 | 4.8 | 4.8 | 0.00 | 0.00 | 0.00 | 51 | 1032.0 |
| 20260905040616 | 15 | 211 | 4.8 | 4.8 | 0.00 | 0.00 | 0.00 | 52 | 1032.0 |
| 20260905040115 | 15 | 225 | 3.2 | 3.2 | 0.00 | 0.00 | 0.00 | 52 | 1032.3 |
| 20260905035610 | 15 | 234 | 3.2 | 3.2 | 0.00 | 0.00 | 0.00 | 52 | 1032.1 |
| 20260905035107 | 16 | 214 | 4.8 | 4.8 | 0.00 | 0.00 | 0.00 | 52 | 1032.1 |
| 20260905034603 | 16 | 257 | 0.0 | 1.6 | 0.00 | 0.00 | 0.00 | 52 | 1032.1 |
| 20260905034102 | 16 | 237 | 1.6 | 4.8 | 0.00 | 0.00 | 0.00 | 51 | 1032.1 |
| 20260905033556 | 16 | 224 | 3.2 | 4.8 | 0.00 | 0.00 | 0.00 | 51 | 1032.0 |
| 20260905033052 | 16 | 244 | 3.2 | 4.8 | 0.00 | 0.00 | 0.00 | 50 | 1032.0 |
| 20260905032552 | 17 | 270 | 1.6 | 6.4 | 0.00 | 0.00 | 0.00 | 49 | 1032.1 |
| 20260905032047 | 17 | 253 | 4.8 | 4.8 | 0.00 | 0.00 | 0.00 | 49 | 1032.0 |
| 20260905031543 | 17 | 220 | 3.2 | 3.2 | 0.00 | 0.00 | 0.00 | 47 | 1032.3 |
| 20260905031042 | 17 | 259 | 3.2 | 6.4 | 0.00 | 0.00 | 0.00 | 46 | 1032.0 |
| 20260905030538 | 17 | 225 | 4.8 | 4.8 | 0.00 | 0.00 | 0.00 | 46 | 1032.1 |
| 20260905030038 | 17 | 246 | 3.2 | 6.4 | 0.00 | 0.00 | 0.00 | 46 | 1032.3 |
| 20260905025533 | 17 | 236 | 1.6 | 3.2 | 0.00 | 0.00 | 0.00 | 46 | 1032.1 |
| 20260905025029 | 17 | 240 | 1.6 | 3.2 | 0.00 | 0.00 | 0.00 | 46 | 1032.3 |
| 20260905024524 | 17 | 231 | 3.2 | 4.8 | 0.00 | 0.00 | 0.00 | 46 | 1032.0 |
| 20260905024019 | 17 | 242 | 1.6 | 6.4 | 0.00 | 0.00 | 0.00 | 46 | 1031.9 |
| 20260905023514 | 17 | 250 | 1.6 | 3.2 | 0.00 | 0.00 | 0.00 | 45 | 1031.9 |
| 20260905023009 | 17 | 284 | 0.0 | 6.4 | 0.00 | 0.00 | 0.00 | 44 | 1031.6 |
| 20260905022503 | 17 | 256 | 0.0 | 4.8 | 0.00 | 0.00 | 0.00 | 45 | 1031.4 |
| 20260905021959 | 17 | 265 | 3.2 | 3.2 | 0.00 | 0.00 | 0.00 | 44 | 1031.5 |
| 20260905021458 | 17 | 256 | 1.6 | 1.6 | 0.00 | 0.00 | 0.00 | 45 | 1031.6 |
| 20260905020953 | 17 | 256 | 0.0 | 0.0 | 0.00 | 0.00 | 0.00 | 47 | 1031.5 |
| 20260905020453 | 17 | 252 | 0.0 | 1.6 | 0.00 | 0.00 | 0.00 | 48 | 1031.1 |
| 20260905015948 | 16 | 287 | 1.6 | 1.6 | 0.00 | 0.00 | 0.00 | 46 | 1031.6 |
| 20260905015446 | 16 | 240 | 1.6 | 1.6 | 0.00 | 0.00 | 0.00 | 47 | 1031.6 |
| 20260905014945 | 16 | 230 | 3.2 | 3.2 | 0.00 | 0.00 | 0.00 | 48 | 1031.5 |
| 20260905014441 | 16 | 240 | 1.6 | 3.2 | 0.00 | 0.00 | 0.00 | 47 | 1031.4 |
| 20260905013936 | 16 | 238 | 1.6 | 4.8 | 0.00 | 0.00 | 0.00 | 49 | 1031.2 |
| 20260905013433 | 16 | 233 | 1.6 | 3.2 | 0.00 | 0.00 | 0.00 | 47 | 1031.1 |
| 20260905012932 | 16 | 241 | 1.6 | 3.2 | 0.00 | 0.00 | 0.00 | 48 | 1031.4 |
| 20260905012428 | 16 | 220 | 3.2 | 4.8 | 0.00 | 0.00 | 0.00 | 47 | 1031.1 |
| 20260905011925 | 17 | 230 | 3.2 | 3.2 | 0.00 | 0.00 | 0.00 | 47 | 1031.2 |
| 20260905011420 | 17 | 232 | 3.2 | 3.2 | 0.00 | 0.00 | 0.00 | 46 | 1031.4 |
| 20260905010915 | 17 | 240 | 1.6 | 3.2 | 0.00 | 0.00 | 0.00 | 44 | 1031.4 |
| 20260905010411 | 17 | 250 | 0.0 | 1.6 | 0.00 | 0.00 | 0.00 | 43 | 1031.4 |
| 20260905005906 | 17 | 224 | 3.2 | 3.2 | 0.00 | 0.00 | 0.00 | 43 | 1031.4 |
| 20260905005402 | 17 | 242 | 1.6 | 1.6 | 0.00 | 0.00 | 0.00 | 44 | 1031.2 |
| 20260905004857 | 17 | 233 | 1.6 | 3.2 | 0.00 | 0.00 | 0.00 | 42 | 1031.5 |
| 20260905004352 | 18 | 216 | 3.2 | 4.8 | 0.00 | 0.00 | 0.00 | 41 | 1031.4 |
| 20260905003847 | 18 | 229 | 3.2 | 3.2 | 0.00 | 0.00 | 0.00 | 41 | 1031.4 |
| 20260905003343 | 18 | 240 | 1.6 | 1.6 | 0.00 | 0.00 | 0.00 | 41 | 1031.4 |
| 20260905002838 | 20 | 221 | 3.2 | 3.2 | 0.00 | 0.00 | 0.00 | 39 | 1031.4 |
| 20260905002337 | 20 | 249 | 0.0 | 1.6 | 0.00 | 0.00 | 0.00 | 37 | 1031.2 |
| 20260905001832 | 20 | 280 | 1.6 | 3.2 | 0.00 | 0.00 | 0.00 | 34 | 1031.2 |
| 20260905001327 | 21 | 269 | 1.6 | 3.2 | 0.00 | 0.00 | 0.00 | 34 | 1031.4 |
| 20260905000823 | 21 | 252 | 0.0 | 0.0 | 0.00 | 0.00 | 0.00 | 37 | 1031.5 |
| 20260905000318 | 21 | 270 | 1.6 | 3.2 | 0.00 | 0.00 | 0.00 | 34 | 1031.2 |
| 20260904235812 | 21 | 253 | 0.0 | 1.6 | 0.00 | 0.00 | 0.00 | 34 | 1031.1 |
| 20260904235306 | 20 | 231 | 1.6 | 1.6 | 0.00 | 0.00 | 0.00 | 35 | 1031.2 |
| 20260904234756 | 21 | 249 | 0.0 | 3.2 | 0.00 | 0.00 | 0.00 | 34 | 1031.2 |
| 20260904234246 | 21 | 276 | 0.0 | 1.6 | 0.00 | 0.00 | 0.00 | 34 | 1031.2 |
| 20260904233742 | 21 | 257 | 1.6 | 1.6 | 0.00 | 0.00 | 0.00 | 34 | 1031.2 |
| 20260904233237 | 21 | 278 | 1.6 | 6.4 | 0.00 | 0.00 | 0.00 | 34 | 1030.8 |
| 20260904232734 | 21 | 274 | 0.0 | 4.8 | 0.00 | 0.00 | 0.00 | 33 | 1031.0 |
| 20260904232229 | 21 | 266 | 0.0 | 3.2 | 0.00 | 0.00 | 0.00 | 33 | 1031.0 |
| 20260904231725 | 21 | 335 | 3.2 | 9.7 | 0.00 | 0.00 | 0.00 | 32 | 1031.0 |
| 20260904231220 | 21 | 271 | 1.6 | 1.6 | 0.00 | 0.00 | 0.00 | 34 | 1031.0 |
| 20260904230715 | 21 | 273 | 3.2 | 3.2 | 0.00 | 0.00 | 0.00 | 33 | 1031.0 |
| 20260904230209 | 21 | 358 | 4.8 | 4.8 | 0.00 | 0.00 | 0.00 | 33 | 1031.1 |
| 20260904225709 | 21 | 288 | 1.6 | 4.8 | 0.00 | 0.00 | 0.00 | 32 | 1031.1 |
| 20260904225203 | 21 | 270 | 0.0 | 1.6 | 0.00 | 0.00 | 0.00 | 33 | 1031.0 |
| 20260904224702 | 21 | 319 | 0.0 | 3.2 | 0.00 | 0.00 | 0.00 | 34 | 1031.1 |
| 20260904224157 | 21 | 263 | 0.0 | 3.2 | 0.00 | 0.00 | 0.00 | 32 | 1031.2 |
| 20260904223656 | 21 | 270 | 0.0 | 4.8 | 0.00 | 0.00 | 0.00 | 32 | 1031.0 |
| 20260904223151 | 21 | 262 | 3.2 | 14.5 | 0.00 | 0.00 | 0.00 | 32 | 1030.8 |
| 20260904222647 | 23 | 32 | 9.7 | 12.9 | 0.00 | 0.00 | 0.00 | 30 | 1031.0 |
| 20260904222143 | 22 | 253 | 4.8 | 9.7 | 0.00 | 0.00 | 0.00 | 31 | 1030.8 |
| 20260904221642 | 22 | 257 | 0.0 | 3.2 | 0.00 | 0.00 | 0.00 | 32 | 1031.1 |
| 20260904221137 | 22 | 346 | 3.2 | 9.7 | 0.00 | 0.00 | 0.00 | 33 | 1031.0 |
| 20260904220632 | 22 | 273 | 0.0 | 4.8 | 0.00 | 0.00 | 0.00 | 33 | 1031.1 |